EW5619 Weather Reports


time (UTC)temp
C
wind
direction
speed
KPH
gust
KPH
rain 1hr
cm
rain 24hr
cm
rain mn
cm
humidity
%
barometer
mb
20260508043602 7 315 3.2 4.8 0.00 0.00 0.00 62 1007.8
20260508042704 7 0 0.0 0.0 0.00 0.00 0.00 61 1007.7
20260508041804 7 0 0.0 0.0 0.00 0.00 0.00 61 1007.7
20260508040902 7 315 0.0 0.0 0.00 0.00 0.00 59 1007.8
20260508040005 7 312 3.2 3.2 0.00 0.00 0.00 59 1007.8
20260508035403 8 318 3.2 4.8 0.00 0.00 0.00 59 1007.7
20260508034502 8 0 0.0 0.0 0.00 0.00 0.00 58 1007.7
20260508033602 8 285 0.0 1.6 0.00 0.00 0.00 58 1007.8
20260508032724 8 252 0.0 0.0 0.00 0.00 0.00 57 1007.6
20260508031803 8 311 4.8 4.8 0.00 0.00 0.00 58 1007.6
20260508030903 8 317 3.2 4.8 0.00 0.00 0.00 59 1007.5
20260508030003 8 0 0.0 0.0 0.00 0.00 0.00 59 1007.6
20260508025402 8 0 0.0 0.0 0.00 0.00 0.00 57 1007.7
20260508024503 8 253 0.0 0.0 0.00 0.00 0.00 56 1007.7
20260508023624 8 299 0.0 3.2 0.00 0.00 0.00 57 1007.8
20260508022703 8 298 4.8 4.8 0.00 0.00 0.00 60 1007.6
20260508021803 8 312 0.0 1.6 0.00 0.00 0.00 58 1007.8
20260508020903 8 0 0.0 0.0 0.00 0.00 0.00 57 1007.8
20260508020002 8 313 0.0 0.0 0.00 0.00 0.00 58 1007.6
20260508015403 8 0 0.0 0.0 0.00 0.00 0.00 57 1007.7
20260508014504 8 0 0.0 0.0 0.00 0.00 0.00 55 1007.6
20260508013603 8 311 0.0 4.8 0.00 0.00 0.00 54 1007.4
20260508012703 9 312 3.2 4.8 0.00 0.00 0.00 53 1007.7
20260508011803 9 282 0.0 0.0 0.00 0.00 0.00 51 1007.4
20260508010903 9 320 1.6 3.2 0.00 0.00 0.00 51 1007.7
20260508010003 9 323 0.0 0.0 0.00 0.00 0.00 50 1007.4
20260508005424 10 319 3.2 4.8 0.00 0.00 0.00 50 1007.1
20260508004502 10 295 3.2 4.8 0.00 0.00 0.00 48 1007.2
20260508003624 10 269 3.2 3.2 0.00 0.00 0.00 47 1007.1
20260508002703 10 304 3.2 4.8 0.00 0.00 0.00 46 1007.1
20260508001804 10 307 4.8 6.4 0.00 0.00 0.00 47 1007.1
20260508000904 10 282 0.0 6.4 0.00 0.00 0.00 45 1006.8
20260508000003 10 252 0.0 1.6 0.00 0.00 0.00 45 1006.9
20260507235424 10 286 1.6 3.2 0.00 0.00 0.00 47 1006.9
20260507234503 10 319 0.0 1.6 0.00 0.00 0.00 50 1006.8
20260507233603 10 310 3.2 4.8 0.00 0.00 0.00 50 1006.9
20260507232703 10 14 0.0 0.0 0.00 0.00 0.00 49 1006.9
20260507231802 10 295 0.0 1.6 0.00 0.00 0.00 45 1006.7
20260507230903 10 310 1.6 3.2 0.00 0.00 0.00 43 1006.8
20260507230024 10 297 3.2 3.2 0.00 0.00 0.00 43 1006.6
20260507225403 11 65 1.6 3.2 0.00 0.00 0.00 45 1006.8
20260507224503 11 291 0.0 1.6 0.00 0.00 0.00 45 1006.6
20260507223604 11 328 1.6 1.6 0.00 0.00 0.00 44 1007.0
20260507222703 11 345 1.6 3.2 0.00 0.00 0.00 44 1007.0
20260507221803 11 39 0.0 1.6 0.00 0.00 0.00 45 1006.7
20260507220903 11 353 3.2 4.8 0.00 0.00 0.00 45 1006.8
20260507220003 11 23 1.6 1.6 0.00 0.00 0.00 47 1006.8
20260507215402 11 326 3.2 4.8 0.00 0.00 0.00 46 1007.1
20260507214503 11 302 3.2 4.8 0.00 0.00 0.00 43 1006.9
20260507213603 11 323 4.8 6.4 0.00 0.00 0.00 43 1006.8
20260507212703 11 301 3.2 3.2 0.00 0.00 0.00 43 1006.7
20260507211824 11 302 0.0 1.6 0.00 0.00 0.00 44 1007.0
20260507210925 11 297 1.6 3.2 0.00 0.00 0.00 44 1006.6
20260507210004 11 359 1.6 1.6 0.00 0.00 0.00 45 1006.9
20260507205404 11 12 6.4 6.4 0.00 0.00 0.00 45 1006.6
20260507204524 10 8 3.2 4.8 0.00 0.00 0.00 47 1006.7
20260507203603 10 15 8.0 9.7 0.00 0.00 0.00 47 1007.0
20260507202703 10 8 3.2 6.4 0.00 0.00 0.00 48 1006.9
20260507201803 10 325 3.2 4.8 0.00 0.00 0.00 47 1006.7
20260507200903 10 300 3.2 6.4 0.00 0.00 0.00 45 1006.8
20260507200003 10 324 4.8 4.8 0.00 0.00 0.00 46 1006.7
20260507195424 10 306 3.2 3.2 0.00 0.00 0.00 46 1006.9
20260507194502 10 315 4.8 9.7 0.00 0.00 0.00 43 1006.8
20260507193624 10 297 1.6 6.4 0.00 0.00 0.00 44 1007.2
20260507192703 10 311 9.7 17.7 0.00 0.00 0.00 42 1006.7
20260507191824 10 312 3.2 6.4 0.00 0.00 0.00 42 1006.6
20260507190903 10 305 6.4 6.4 0.00 0.00 0.00 41 1006.8
20260507190004 11 289 14.5 22.5 0.00 0.00 0.00 39 1006.8
20260507185404 10 290 6.4 9.7 0.00 0.00 0.00 42 1006.7
20260507184503 10 315 3.2 4.8 0.00 0.00 0.00 42 1006.8
20260507183603 10 316 6.4 9.7 0.00 0.00 0.00 44 1006.7
20260507182703 10 332 6.4 6.4 0.00 0.00 0.00 43 1006.9
20260507181824 10 356 3.2 6.4 0.00 0.00 0.00 44 1006.8
20260507180902 10 319 4.8 4.8 0.00 0.00 0.00 44 1006.8
20260507180024 10 311 6.4 9.7 0.00 0.00 0.00 43 1006.9
20260507175424 10 300 3.2 6.4 0.00 0.00 0.00 42 1006.8
20260507174503 10 298 4.8 12.9 0.00 0.00 0.00 42 1006.7
20260507173603 10 331 1.6 4.8 0.00 0.00 0.00 43 1006.6
20260507172703 10 302 4.8 14.5 0.00 0.00 0.00 41 1006.5
20260507171803 11 288 6.4 25.7 0.00 0.00 0.00 40 1006.6
20260507170903 10 309 6.4 14.5 0.00 0.00 0.00 41 1006.6
20260507170003 11 298 11.3 17.7 0.00 0.00 0.00 40 1006.8
20260507165403 11 286 9.7 17.7 0.00 0.00 0.00 39 1006.8
20260507164503 11 298 16.1 29.0 0.00 0.00 0.00 41 1006.8
20260507163603 11 285 17.7 20.9 0.00 0.00 0.00 40 1006.9
20260507162723 10 312 9.7 14.5 0.00 0.00 0.00 41 1007.2
20260507161803 10 304 3.2 12.9 0.00 0.00 0.00 42 1007.1
20260507160924 10 295 9.7 20.9 0.00 0.00 0.00 44 1007.4
20260507160003 10 278 9.7 16.1 0.00 0.00 0.00 47 1007.3
20260507155403 10 289 8.0 9.7 0.00 0.03 0.00 47 1007.3
20260507154524 10 292 6.4 12.9 0.00 0.03 0.00 46 1007.3
20260507153604 10 275 8.0 14.5 0.00 0.03 0.00 46 1007.4
20260507152703 10 278 12.9 22.5 0.00 0.03 0.00 44 1007.4
20260507151802 10 303 3.2 4.8 0.00 0.03 0.00 46 1007.0
20260507150903 9 301 6.4 25.7 0.00 0.05 0.00 52 1007.2
20260507150003 10 298 4.8 14.5 0.00 0.08 0.00 52 1007.1
20260507145403 10 303 6.4 14.5 0.00 0.10 0.00 50 1007.1
20260507144503 10 278 8.0 11.3 0.00 0.18 0.00 52 1007.0
20260507143603 10 268 6.4 12.9 0.00 0.23 0.00 53 1006.7
20260507142702 8 294 9.7 12.9 0.00 0.25 0.00 54 1007.0
20260507141824 9 292 12.9 17.7 0.00 0.28 0.00 53 1007.1
20260507140903 8 288 6.4 11.3 0.00 0.30 0.00 54 1007.1
20260507140003 8 315 1.6 4.8 0.00 0.33 0.00 58 1007.3
20260507135424 8 286 9.7 14.5 0.00 0.36 0.00 57 1007.3
20260507134524 8 282 19.3 29.0 0.00 0.38 0.00 56 1007.1
20260507133602 8 290 9.7 12.9 0.00 0.41 0.00 56 1007.2
20260507132703 7 285 6.4 14.5 0.00 0.43 0.00 58 1007.1
20260507131824 7 274 6.4 24.1 0.00 0.46 0.00 58 1007.1
20260507130903 8 280 9.7 25.7 0.00 0.46 0.00 57 1007.2
20260507130003 8 275 3.2 6.4 0.00 0.48 0.00 58 1007.3
20260507125404 7 290 14.5 17.7 0.00 0.48 0.00 59 1007.3
20260507124503 7 299 11.3 14.5 0.00 0.48 0.00 60 1007.2
20260507123604 7 286 6.4 6.4 0.00 0.48 0.00 60 1007.3
20260507122703 7 292 17.7 24.1 0.00 0.51 0.00 60 1007.4
20260507121824 6 273 9.7 24.1 0.00 0.53 0.00 62 1007.2
20260507120903 6 286 8.0 24.1 0.00 0.56 0.00 61 1007.4
20260507120003 6 276 9.7 16.1 0.00 0.56 0.00 63 1007.3
20260507115403 6 286 12.9 24.1 0.00 0.58 0.00 63 1007.1
20260507114503 6 281 9.7 12.9 0.00 0.61 0.00 63 1007.1
20260507113603 6 264 3.2 6.4 0.00 0.64 0.00 64 1007.1
20260507112703 6 264 8.0 12.9 0.00 0.66 0.00 64 1007.2
20260507111802 6 267 11.3 17.7 0.00 0.69 0.00 65 1007.0
20260507110903 6 265 8.0 20.9 0.00 0.71 0.00 66 1007.2
20260507110004 5 267 9.7 20.9 0.00 0.74 0.00 68 1007.1
20260507105425 5 270 12.9 20.9 0.00 0.76 0.00 68 1006.9
20260507104503 5 251 8.0 11.3 0.00 0.76 0.00 70 1006.9
20260507103603 6 283 4.8 6.4 0.00 0.79 0.00 70 1006.8
20260507102703 6 286 4.8 12.9 0.00 0.81 0.00 70 1006.7
20260507101803 6 274 8.0 11.3 0.00 0.84 0.00 75 1006.6
20260507100904 6 260 11.3 17.7 0.00 0.84 0.00 75 1006.5
20260507100003 6 268 3.2 11.3 0.00 0.86 0.00 74 1006.1
20260507095403 6 278 4.8 9.7 0.00 0.86 0.00 80 1006.4
20260507094503 6 269 6.4 12.9 0.00 0.86 0.00 84 1006.4
20260507093603 7 268 11.3 16.1 0.00 0.89 0.00 87 1006.4
20260507092703 6 269 11.3 12.9 0.00 0.89 0.00 88 1006.4
20260507091804 7 280 4.8 11.3 0.00 0.89 0.00 88 1006.4
20260507090903 7 263 9.7 16.1 0.00 0.89 0.00 87 1006.7
20260507090003 7 260 3.2 14.5 0.00 0.89 0.00 88 1006.6
20260507085402 6 266 4.8 9.7 0.00 0.89 0.00 88 1006.5
20260507084504 7 271 11.3 17.7 0.00 0.89 0.00 87 1006.3
20260507083603 7 265 11.3 14.5 0.00 0.89 0.00 87 1006.2
20260507082703 6 262 9.7 14.5 0.00 0.89 0.00 88 1006.0
20260507081803 7 275 4.8 14.5 0.00 0.89 0.00 88 1006.2
20260507080903 7 264 9.7 20.9 0.00 0.89 0.00 88 1006.2
20260507080003 6 266 11.3 14.5 0.00 0.89 0.00 89 1006.5
20260507075403 7 296 4.8 6.4 0.00 0.89 0.00 89 1006.4
20260507074503 7 263 9.7 11.3 0.00 0.89 0.00 88 1006.6
20260507073603 7 262 9.7 12.9 0.00 0.89 0.00 88 1006.6
20260507072703 6 263 8.0 12.9 0.00 0.89 0.00 89 1006.5
20260507071824 7 265 4.8 9.7 0.00 0.89 0.00 88 1006.7
20260507070903 7 266 4.8 14.5 0.00 0.89 0.00 88 1006.4
20260507070004 7 281 6.4 11.3 0.00 0.89 0.00 89 1006.5
20260507065424 7 298 6.4 11.3 0.00 0.89 0.00 88 1006.4
20260507064503 7 277 4.8 11.3 0.00 0.89 0.00 87 1006.7
20260507063604 7 275 9.7 12.9 0.00 0.89 0.00 87 1006.8
20260507062703 6 282 8.0 11.3 0.00 0.89 0.00 88 1006.9
20260507061803 7 269 9.7 11.3 0.00 0.89 0.00 86 1006.8
20260507060903 7 265 6.4 9.7 0.00 0.89 0.00 86 1006.9
20260507060003 6 282 6.4 9.7 0.00 0.89 0.00 87 1006.7
20260507055403 6 278 8.0 9.7 0.00 0.89 0.00 86 1006.8
20260507054503 6 256 6.4 11.3 0.00 0.89 0.00 85 1007.0
20260507053603 6 274 4.8 6.4 0.00 0.89 0.00 86 1007.0
20260507052703 6 282 4.8 6.4 0.00 0.89 0.00 86 1007.1
20260507051803 6 248 3.2 9.7 0.00 0.89 0.00 85 1007.2
20260507050903 6 302 3.2 6.4 0.00 0.89 0.00 87 1007.1
20260507050003 6 295 6.4 9.7 0.00 0.89 0.00 87 1007.1
20260507045403 7 267 0.0 1.6 0.00 0.89 0.00 87 1007.4
20260507044503 6 273 3.2 4.8 0.00 0.89 0.00 88 1007.5